Location: Chiroubles
(46.1812°N, 4.6660°E)
Time: 02:34:17
(UTC+00:00)

Cosmos 405 Rocket - Pass Details

Date: 15 August 2020
Orbit: 490 x 553 km, 81.3° (Epoch: 25 September)

Event Time Altitude Azimuth Distance (km) Brightness Sun altitude
Exits shadow 20:49:13 10° 208° (SSW) 1,713 5.2 -18.2°
Reaches altitude 10° 20:49:16 10° 208° (SSW) 1,689 5.1 -18.2°
Maximum altitude 20:52:52 49° 284° (WNW) 656 3.5 -18.6°
Drops below altitude 10° 20:56:33 10° 0° (N) 1,730 6.0 -19.1°
Sets 20:58:46 0° 6° (N) 2,631 6.9 -19.3°
